This demonstration page uses our WeatherBlox Daily Observations layout. Learn more.

Left ArrowRight Arrow

Hourly Observations for May 2, 2017

Temp ( °F °C ) Dew Point ( °F °C ) Humidity (%) Winds ( mph kmh ) Pressure ( in mb ) Visibility ( mi km ) Precip ( " mm )
12:53 am 00:53 Clear 65 18.3 30 -1.1 27 27 ESE 10 17 29.79 1009 10 16 0.00 0.00
1:53 am 01:53 Clear 65 18.3 29 -1.7 26 26 SE 12 19 29.78 1009 10 16 0.00 0.00
2:53 am 02:53 Clear 56 13.3 31 -0.6 39 39 N 9 15 29.80 1009 10 16 0.00 0.00
3:53 am 03:53 Clear 54 12.2 32 0 43 43 NNE 7 11 29.79 1009 10 16 0.00 0.00
4:53 am 04:53 Clear 55 12.8 33 0.6 44 44 ENE 7 11 29.79 1009 10 16 0.00 0.00
5:53 am 05:53 Clear 56 13.3 37 2.8 49 49 E 9 15 29.78 1009 10 16 0.00 0.00
6:53 am 06:53 Clear 59 15 39 3.9 48 48 ESE 13 20 29.78 1009 10 16 0.00 0.00
7:53 am 07:53 Sunny 60 15.6 41 5 50 50 SE 10 17 29.80 1009 10 16 0.00 0.00
8:53 am 08:53 Sunny 65 18.3 44 6.7 47 47 SE 14 22 29.83 1010 10 16 0.00 0.00
9:53 am 09:53 Sunny 69 20.6 44 6.7 41 41 SSE 13 20 29.84 1010 10 16 0.00 0.00
10:53 am 10:53 Sunny 71 21.7 44 6.7 38 38 SSE 8 13 29.83 1010 10 16 0.00 0.00
11:53 am 11:53 Sunny 79 26.1 40 4.4 25 25 S 7 11 29.81 1009 10 16 0.00 0.00
12:53 pm 12:53 Sunny 83 28.3 35 1.7 18 18 SSE 9 15 29.78 1008 10 16 0.00 0.00
1:53 pm 13:53 Sunny 89 31.7 32 0 13 13 SSE 8 13 29.74 1007 10 16 0.00 0.00
2:53 pm 14:53 Sunny 91 32.8 23 -5 8 8 Calm 29.71 1006 10 16 0.00 0.00
3:53 pm 15:53 Sunny 93 33.9 19 -7.2 7 7 SW 9 15 29.68 1005 10 16 0.00 0.00
4:53 pm 16:53 Sunny 93 33.9 16 -8.9 6 6 VRB 7 11 29.65 1004 10 16 0.00 0.00
5:53 pm 17:53 Sunny 95 35 17 -8.3 6 6 SW 12 19 29.62 1003 10 16 0.00 0.00
6:53 pm 18:53 Sunny 94 34.4 19 -7.2 6 6 SSW 12 19 29.60 1002 10 16 0.00 0.00
7:53 pm 19:53 Sunny 92 33.3 25 -3.9 9 9 SSE 12 19 29.60 1002 10 16 0.00 0.00
8:53 pm 20:53 Clear 85 29.4 42 5.6 22 22 SSE 14 22 29.61 1003 10 16 0.00 0.00
9:53 pm 21:53 Clear 80 26.7 45 7.2 29 29 SE 13 20 29.65 1004 10 16 0.00 0.00
10:53 pm 22:53 Clear 77 25 47 8.3 35 35 SSE 9 15 29.68 1005 10 16 0.00 0.00
11:53 pm 23:53 Clear 74 23.3 46 7.8 37 37 SE 12 19 29.68 1005 10 16 0.00 0.00

Powered by AerisWeather